[[{"header":{"parameterUnit":"m.s-1","parameterCategory":1,"la1":30.2991,"la2":30.254,"lo1":-89.0895,"lo2":-89.0444,"dy":0.0017,"dx":0.0017,"nx":28,"ny":28,"refTime":"2023-10-02T09:00:00:Z","depth":0,"parameterNumber":2,"parameterNumberName":"U-component_of_WINDS"},"data":[0,0,0,0,0,0,0,0,0,0,0,0,0,0,0,0,0,0,0,0,0,0,0,0,0,0,0,0,0,0,0,0,0,0,0,0,0,0,0,0,0,0,0,0,0,0,0,0,0,0,0,0,0,0,0,0,0,0,-4.1321,-4.1321,0,-4.1308,-4.1307,-4.1307,-4.1143,-4.1139,-4.1135,-4.1131,-4.1118,-4.1122,-4.1125,0,0,0,0,0,0,0,0,0,0,0,0,0,-4.1204,-4.1208,-4.1321,-4.1321,-4.132,-4.1308,-4.1307,-4.1307,-4.1144,-4.1139,-4.1134,-4.1129,-4.1117,-4.1121,-4.1126,0,0,0,0,0,0,0,0,0,0,0,0,0,-4.123,-4.1209,-4.1321,-4.1237,-4.123,-4.1308,-4.1307,-4.1307,-4.1145,-4.1139,-4.1132,-4.1126,-4.1116,-4.1121,-4.1126,-4.1284,0,0,-4.1142,-4.1145,0,0,0,0,0,0,0,0,-4.1229,-4.1234,-4.125,-4.1243,-4.1235,-4.122,-4.1262,-4.1299,-4.1146,-4.1177,-4.1131,-4.1123,-4.1157,-4.1159,-4.117,-4.1283,-4.1282,-4.1143,-4.1146,-4.1148,-4.115,0,0,0,0,0,0,0,-4.1227,-4.1234,-4.1315,-4.125,-4.1241,-4.12,-4.1197,-4.1268,-4.1202,-4.1174,-4.1162,-4.1163,-4.1152,-4.1165,-4.1169,-4.1282,-4.1143,-4.1147,-4.1151,-4.1153,-4.1523,-4.153,0,0,0,0,0,0,-4.1237,-4.1233,-4.1316,-4.1315,-4.1216,-4.1208,-4.1204,-4.1231,-4.1201,-4.119,-4.1168,-4.1155,-4.1159,-4.1163,-4.1168,-4.135,-4.1148,-4.1153,-4.1156,-4.1517,-4.1525,-4.1532,0,0,0,0,0,0,-4.1235,-4.1246,-4.1316,-4.1271,-4.1277,-4.1216,-4.1248,-4.1234,-4.1247,-4.1197,-4.1184,-4.1194,-4.1155,-4.116,-4.1256,-4.1347,-4.1156,-4.116,-4.1509,-4.1519,-4.1528,-4.1716,0,0,0,0,0,0,-4.1232,-4.1246,-4.1305,-4.1274,-4.128,-4.1405,-4.1254,-4.1239,-4.1257,-4.124,-4.1217,-4.1208,-4.115,-4.1249,-4.1261,-4.1351,-4.1165,-4.15,-4.1513,-4.1525,-4.1701,-4.1731,-4.1756,0,0,0,0,0,-4.1229,-4.1359,-4.1309,-4.132,-4.1353,-4.1411,-4.1414,-4.1345,-4.1265,-4.1324,-4.1291,-4.1208,-4.1335,-4.126,-4.1272,-4.1365,-4.1494,-4.151,-4.1524,-4.1689,-4.1725,-4.1756,0,0,0,0,0,0,-4.1403,-4.1353,-4.1297,-4.1421,-4.1421,-4.1383,-4.1455,-4.1386,-4.141,-4.1393,-4.1306,-4.1303,-4.1412,-4.1398,-4.1315,-4.1516,-4.14,-4.1419,-4.1521,-4.1555,-4.1582,-4.1584,-4.1169,0,0,0,0,0,-4.1455,-4.1507,-4.146,-4.1574,-4.1577,-4.1517,-4.1539,-4.1486,-4.1483,-4.1483,-4.1457,-4.1458,-4.1497,-4.1525,-4.1559,-4.1698,-4.1691,-4.1768,-4.1796,-4.1819,-4.1836,-4.1908,-4.1942,-4.1581,-4.1581,-4.1581,0,0,-4.1565,-4.1544,-4.1582,-4.1608,-4.1602,-4.1658,-4.1518,-4.1582,-4.1622,-4.1492,-4.1581,-4.1563,-4.1557,-4.1676,-4.1727,-4.1668,-4.1934,-4.1838,-4.1857,-4.1861,-4.1927,-4.1962,-4.1992,-4.1591,-4.1589,-4.1588,0,0,-4.1793,-4.1782,-4.1875,-4.1872,-4.1865,-4.1824,-4.1847,-4.1819,-4.1802,-4.1889,-4.1793,-4.1839,-4.191,-4.191,-4.192,-4.2148,-4.2073,-4.2162,-4.2306,-4.2378,-4.2406,-4.2431,-4.2513,-4.2543,-4.2178,-4.2179,-4.2179,0,-4.193,-4.2009,-4.1932,-4.2003,-4.2018,-4.1902,-4.1996,-4.1997,-4.2002,-4.2015,-4.1948,-4.2034,-4.2023,-4.2139,-4.2195,-4.2207,-4.223,-4.2164,-4.2409,-4.2433,-4.2455,-4.2532,-4.2563,-4.219,-4.2189,-4.2187,-4.2186,0,-4.2178,-4.2235,-4.2311,-4.2318,-4.2341,-4.2424,-4.2359,-4.2392,-4.2337,-4.2303,-4.2394,-4.2376,-4.2405,-4.2428,-4.2375,-4.2538,-4.2502,-4.2424,-4.2306,-4.2501,-4.2572,-4.2601,-4.2205,-4.2201,-4.2198,-4.2195,0,0,-4.2515,-4.2479,-4.2508,-4.251,-4.2493,-4.2536,-4.2613,-4.264,-4.267,-4.2677,-4.274,-4.2802,-4.273,-4.2741,-4.2687,-4.275,-4.2932,-4.2663,-4.2662,-4.2714,-4.3111,-4.3171,-4.3206,-4.2882,-4.2888,-4.2892,-4.3112,0,-4.2735,-4.2864,-4.2798,-4.2936,-4.2987,-4.2878,-4.2945,-4.2943,-4.2914,-4.2953,-4.292,-4.2966,-4.2866,-4.2872,-4.293,-4.2898,-4.3011,-4.2881,-4.294,-4.2943,-4.2945,-4.3243,-4.3306,-4.3514,-4.3139,-4.3144,-4.3147,0,-4.3009,-4.3027,-4.3171,-4.3145,-4.3164,-4.3225,-4.3245,-4.3284,-4.3279,-4.3253,-4.3266,-4.3197,-4.3271,-4.3154,-4.3255,-4.3169,-4.3189,-4.3177,-4.3183,-4.3186,-4.3057,-4.3255,-4.3579,-4.3611,-4.319,-4.3186,-4.3183,0,-4.3241,-4.3302,-4.3395,-4.34,-4.3372,-4.3418,-4.3408,-4.3397,-4.3418,-4.3435,-4.3448,-4.3474,-4.3489,-4.3511,-4.3451,-4.3371,-4.356,-4.3438,-4.3541,-4.3543,-4.3586,-4.3585,-4.3919,-4.3599,-4.3599,-4.3598,-4.3598,0,-4.3493,-4.3586,-4.3499,-4.3557,-4.3657,-4.3579,-4.368,-4.3659,-4.365,-4.3702,-4.3609,-4.366,-4.3578,-4.362,-4.3574,-4.3665,-4.3672,-4.3654,-4.364,-4.3662,-4.3665,-4.3675,-4.3659,-4.3607,-4.3605,-4.3603,-4.3602,0,-4.377,-4.3715,-4.381,-4.3776,-4.3769,-4.3845,-4.3815,-4.3867,-4.3831,-4.3898,-4.391,-4.3854,-4.3899,-4.3841,-4.3882,-4.385,-4.3975,-4.3939,-4.3977,-4.3967,-4.4073,-4.4064,-4.4426,-4.4469,-4.4122,-4.4125,-4.4128,0,-4.3935,-4.4003,-4.3976,-4.4004,-4.4,-4.4046,-4.4067,-4.3993,-4.4018,-4.4018,-4.4071,-4.4108,-4.4134,-4.4212,-4.4175,-4.4206,-4.4171,-4.4295,-4.4175,-4.4195,-4.4173,-4.417,-4.4176,-4.432,-4.4324,-4.4328,-4.4331,0,-4.4234,-4.4203,-4.4236,-4.4261,-4.4288,-4.4304,-4.4312,-4.4341,-4.4263,-4.4297,-4.4342,-4.4362,-4.4403,-4.4442,-4.4462,-4.4452,-4.438,-4.4369,-4.4394,-4.4418,-4.4436,-4.4428,-4.4044,-4.4361,-4.4358,-4.4356,-4.4354,-4.4353,-4.4459,-4.4515,-4.4505,-4.4545,-4.4543,-4.4554,-4.4601,-4.4571,-4.4607,-4.4635,-4.4589,-4.4646,-4.4639,-4.4659,-4.4658,-4.4702,-4.4648,-4.4685,-4.4694,-4.4705,-4.4721,-4.4429,-4.4705,-4.4704,-4.4703,-4.4702,-4.4702,0,-4.4753,-4.4741,-4.4779,-4.4794,-4.4826,-4.4754,-4.4759,-4.4791,-4.4842,-4.4842,-4.487,-4.4922,-4.4959,-4.4926,-4.4956,-4.4998,-4.4965,-4.5008,-4.5005,-4.5004,-4.4767,-4.4742,-4.5034,-4.5034,-4.5034,-4.5034,-4.5034,-4.5034,-4.491,-4.5001,-4.4969,-4.5058,-4.5045,-4.51,-4.511,-4.5119,-4.5118,-4.5181,-4.5211,-4.5189,-4.5175,-4.5204,-4.5235,-4.5224,-4.524,-4.5295,-4.5273,-4.5053,-4.502,-4.4989,-4.4965,-4.5299,-4.53,-4.5506,-4.5508,-4.5509]},{"header":{"parameterUnit":"m.s-1","parameterCategory":1,"la1":30.2991,"la2":30.254,"lo1":-89.0895,"lo2":-89.0444,"dy":0.0017,"dx":0.0017,"nx":28,"ny":28,"refTime":"2023-10-02T09:00:00:Z","depth":0,"parameterNumber":3,"parameterNumberName":"V-component_of_WINDS"},"data":[0,0,0,0,0,0,0,0,0,0,0,0,0,0,0,0,0,0,0,0,0,0,0,0,0,0,0,0,0,0,0,0,0,0,0,0,0,0,0,0,0,0,0,0,0,0,0,0,0,0,0,0,0,0,0,0,0,0,1.1775,1.1774,0,1.1687,1.1686,1.1685,1.1669,1.167,1.167,1.1671,1.1574,1.157,1.1567,0,0,0,0,0,0,0,0,0,0,0,0,0,1.1923,1.1921,1.1775,1.1774,1.1773,1.1687,1.1686,1.1685,1.1669,1.167,1.167,1.1671,1.1575,1.1571,1.1567,0,0,0,0,0,0,0,0,0,0,0,0,0,1.1849,1.192,1.1775,1.1755,1.1752,1.1687,1.1686,1.1684,1.1668,1.167,1.1671,1.1672,1.1576,1.1571,1.1566,1.1514,0,0,1.1551,1.1549,0,0,0,0,0,0,0,0,1.1854,1.1844,1.1759,1.1756,1.1753,1.169,1.1703,1.1627,1.1668,1.17,1.1671,1.1672,1.1611,1.1603,1.1584,1.1509,1.1505,1.1551,1.1548,1.1546,1.1544,0,0,0,0,0,0,0,1.1859,1.1848,1.174,1.1757,1.1754,1.1748,1.1739,1.1688,1.165,1.1697,1.1696,1.1686,1.1609,1.1589,1.1582,1.1503,1.1551,1.1547,1.1544,1.1542,1.1381,1.138,0,0,0,0,0,0,1.1868,1.1852,1.1743,1.1737,1.1807,1.1744,1.1734,1.1709,1.1651,1.1643,1.1685,1.1686,1.1597,1.1587,1.1578,1.1512,1.1546,1.1541,1.1538,1.1383,1.1381,1.138,0,0,0,0,0,0,1.1872,1.1859,1.1746,1.1794,1.178,1.1741,1.1713,1.1707,1.1686,1.1642,1.1634,1.1671,1.1597,1.1585,1.153,1.1509,1.1539,1.1534,1.1384,1.1382,1.138,1.138,0,0,0,0,0,0,1.1876,1.186,1.1841,1.1794,1.1777,1.1701,1.1711,1.1704,1.1678,1.1678,1.1627,1.1619,1.1597,1.1538,1.1526,1.1502,1.1531,1.1386,1.1383,1.1381,1.1382,1.1379,1.1376,0,0,0,0,0,1.1881,1.1843,1.184,1.1827,1.1752,1.17,1.169,1.1668,1.1677,1.1656,1.1628,1.1621,1.1514,1.1532,1.1518,1.1493,1.1387,1.1384,1.1381,1.1384,1.1379,1.1376,0,0,0,0,0,0,1.1884,1.1836,1.1832,1.1778,1.1744,1.1698,1.1671,1.1664,1.1625,1.1626,1.1598,1.1586,1.1533,1.1508,1.1529,1.144,1.1451,1.1445,1.1457,1.1453,1.145,1.1456,1.1526,0,0,0,0,0,1.188,1.1843,1.1802,1.1758,1.1741,1.1709,1.1686,1.1672,1.1634,1.1619,1.1586,1.1548,1.1506,1.1479,1.1438,1.138,1.1367,1.1356,1.1353,1.135,1.1344,1.1312,1.1306,1.137,1.137,1.137,0,0,1.1867,1.1836,1.1814,1.1758,1.173,1.1691,1.1697,1.1655,1.1626,1.1612,1.1558,1.1534,1.1489,1.1433,1.1407,1.1411,1.1325,1.1347,1.1345,1.134,1.1308,1.1302,1.1297,1.1368,1.1368,1.1369,0,0,1.1825,1.1799,1.1759,1.1732,1.1691,1.167,1.1661,1.1617,1.16,1.1548,1.1536,1.15,1.1428,1.1397,1.1372,1.1322,1.1313,1.1309,1.1291,1.126,1.1254,1.125,1.123,1.1224,1.1304,1.1304,1.1304,0,1.1814,1.1757,1.1739,1.1698,1.1673,1.1663,1.1621,1.1595,1.1541,1.1523,1.153,1.1441,1.141,1.1346,1.1334,1.1315,1.1302,1.1313,1.1257,1.1252,1.1248,1.1229,1.1222,1.1304,1.1304,1.1304,1.1304,0,1.1745,1.1706,1.1679,1.1631,1.1603,1.1562,1.1536,1.151,1.1499,1.1478,1.1424,1.1388,1.1339,1.1324,1.1312,1.1258,1.1262,1.1263,1.1273,1.1241,1.1223,1.1216,1.1303,1.1303,1.1304,1.1304,0,0,1.1698,1.1644,1.1633,1.1612,1.1567,1.1535,1.1494,1.145,1.1427,1.1391,1.1355,1.1296,1.1298,1.1269,1.1254,1.1227,1.1188,1.1232,1.123,1.1223,1.1126,1.1123,1.1115,1.1184,1.1183,1.1181,1.1129,0,1.1649,1.1578,1.1561,1.1499,1.1462,1.1453,1.1417,1.1385,1.1365,1.1329,1.1306,1.1264,1.127,1.1253,1.1226,1.1199,1.1168,1.1203,1.1147,1.1145,1.1156,1.1106,1.1102,1.1054,1.1122,1.112,1.1119,0,1.1581,1.1547,1.1482,1.1444,1.1428,1.1396,1.1354,1.1321,1.1284,1.1271,1.1242,1.123,1.1185,1.1201,1.1138,1.1162,1.1139,1.1122,1.112,1.1111,1.1128,1.1093,1.1038,1.103,1.1108,1.1109,1.111,0,1.1552,1.149,1.1443,1.1425,1.1379,1.1357,1.1336,1.1301,1.1276,1.1239,1.1222,1.118,1.1156,1.1123,1.11,1.1114,1.1039,1.1052,1.1025,1.1025,1.1006,1.1007,1.0944,1.0996,1.0996,1.0996,1.0996,0,1.1497,1.1457,1.1429,1.14,1.1355,1.1336,1.1292,1.1271,1.124,1.1205,1.1195,1.1162,1.1135,1.1098,1.108,1.103,1.102,1.1007,1.1002,1.1006,1.1007,1.0988,1.099,1.0994,1.0995,1.0995,1.0995,0,1.1454,1.1435,1.1383,1.1345,1.1335,1.1303,1.127,1.124,1.1222,1.1178,1.1167,1.1136,1.1092,1.1067,1.1011,1.0999,1.0943,1.0941,1.0956,1.0953,1.0926,1.0928,1.0846,1.0834,1.0897,1.0896,1.0896,0,1.1419,1.1389,1.1349,1.1327,1.1307,1.127,1.1246,1.1227,1.1201,1.1159,1.1134,1.1091,1.1055,1.0985,1.0956,1.0914,1.0909,1.0883,1.0902,1.0907,1.0906,1.0907,1.0903,1.0879,1.0878,1.0878,1.0877,0,1.1358,1.1351,1.1317,1.128,1.1251,1.122,1.1189,1.1171,1.1147,1.1118,1.1075,1.1048,1.0993,1.0949,1.0905,1.0882,1.0874,1.0873,1.0863,1.0866,1.0875,1.0868,1.0945,1.0873,1.0874,1.0874,1.0874,1.0874,1.1317,1.1289,1.1258,1.122,1.1196,1.1168,1.1139,1.1118,1.1083,1.1038,1.103,1.0984,1.0949,1.0889,1.0865,1.0828,1.0832,1.0819,1.0816,1.0812,1.081,1.0884,1.082,1.082,1.082,1.082,1.082,0,1.1254,1.1234,1.12,1.1159,1.1129,1.113,1.1096,1.1071,1.1032,1.1001,1.0967,1.0918,1.0876,1.0846,1.0803,1.0779,1.0774,1.0768,1.0768,1.0762,1.081,1.0821,1.0772,1.0772,1.0772,1.0772,1.0772,1.0772,1.1217,1.1171,1.116,1.1102,1.1082,1.1039,1.1019,1.0993,1.0969,1.0915,1.0882,1.0864,1.0833,1.0788,1.0749,1.0741,1.0725,1.0718,1.0709,1.0754,1.0759,1.0764,1.0774,1.0716,1.0716,1.0664,1.0664,1.0664]}]]